sat.trackr.live / text

‹ back to catalog

STARLINK-2449

NORAD 48112 · 2021-027W

PAYLOAD ACTIVE UNKNOWN

§ Identity

Operator
Country
US
Launch date
2021-04-07
Launch site
AFETR
Launch vehicle
Mass (kg)
RCS (m²)

Purposes: comms

External: N2YO · Heavens-Above · Gunter

§ Orbital elements

Epoch: 2026-05-25T01:51:45.109152Z

Period
94.01 min
Inclination
53.1582°
Eccentricity
0.0001356
Mean motion
15.31699838 rev/d
Perigee alt
469.8 km
Apogee alt
471.7 km
Semi-major
6,848.9 km
B*
6.3493e-5
RAAN
172.4965°
Arg perigee
85.2365°
Mean anomaly
274.8791°
Rev number
28,418

§ Raw data

STARLINK-24491 48112U 21027W   26145.07760543  .00001605  00000+0  63493-4 0  99982 48112  53.1582 172.4965 0001356  85.2365 274.8791 15.31699838284184

JSON: /api/v1/satellites/48112 · /tle

For live sub-satellite position, see the globe view (requires WebGL).

§ Visibility from observer

Set your observer location to see the next 7 days of passes ≥ 10°. The values pass through the URL so the page stays shareable.

No JS? Fill the form by hand. The geolocation button needs JavaScript.